This demonstration page uses our WeatherBlox Daily Observations layout. Learn more.

Left ArrowRight Arrow

34.02893, -84.19858

Hourly Observations for February 16, 2022

Temp ( °F °C ) Dew Point ( °F °C ) Humidity (%) Winds ( mph kmh ) Pressure ( in mb ) Visibility ( mi km ) Precip ( " mm )
12:53 am 00:53 Clear 46 7.8 27 -2.8 47 47 VRB 3 6 30.48 1032 10 16 0.00 0.00
1:53 am 01:53 Clear 47 8.3 28 -2.2 48 48 VRB 5 7 30.46 1032 10 16 0.00 0.00
2:53 am 02:53 Cloudy 47 8.3 33 0.6 59 59 ESE 6 9 30.45 1031 10 16 0.00 0.00
3:53 am 03:53 Cloudy 46 7.8 34 1.1 63 63 VRB 3 6 30.45 1031 10 16 0.00 0.00
4:53 am 04:53 Mostly Cloudy 45 7.2 35 1.7 68 68 VRB 3 6 30.45 1031 10 16 0.00 0.00
5:53 am 05:53 Mostly Clear 44 6.7 35 1.7 71 71 Calm 30.47 1032 10 16 0.00 0.00
6:53 am 06:53 Clear 42 5.6 34 1.1 73 73 VRB 5 7 30.48 1032 10 16 0.00 0.00
7:53 am 07:53 Mostly Cloudy 42 5.6 35 1.7 76 76 Calm 30.50 1033 10 16 0.00 0.00
8:53 am 08:53 Mostly Cloudy 44 6.7 37 2.8 76 76 E 6 9 30.50 1033 10 16 0.00 0.00
8:55 am 08:55 Mostly Cloudy 44 6.7 37 2.8 76 76 VRB 3 6 30.51 1033 10 16 0.00 0.00
9:53 am 09:53 Mostly Cloudy 51 10.6 42 5.6 71 71 VRB 7 11 30.50 1033 10 16 0.00 0.00
10:53 am 10:53 Mostly Cloudy 54 12.2 44 6.7 69 69 VRB 3 6 30.49 1033 10 16 0.00 0.00
11:53 am 11:53 Mostly Cloudy 60 15.6 46 7.8 60 60 VRB 6 9 30.48 1032 10 16 0.00 0.00
12:53 pm 12:53 Mostly Cloudy 62 16.7 47 8.3 58 58 VRB 6 9 30.43 1030 10 16 0.00 0.00
1:53 pm 13:53 Mostly Cloudy 62 16.7 48 8.9 60 60 VRB 7 11 30.40 1029 10 16 0.00 0.00
2:53 pm 14:53 Mostly Cloudy 65 18.3 48 8.9 54 54 VRB 3 6 30.36 1028 10 16 0.00 0.00
3:53 pm 15:53 Mostly Cloudy 66 18.9 46 7.8 49 49 SE 12 19 30.32 1027 10 16 0.00 0.00
4:53 pm 16:53 Mostly Sunny 67 19.4 46 7.8 47 47 SSE 7 11 30.31 1027 10 16 0.00 0.00
5:53 pm 17:53 Mostly Cloudy 65 18.3 47 8.3 52 52 SE 9 15 30.30 1026 10 16 0.00 0.00
6:53 pm 18:53 Clear 63 17.2 46 7.8 54 54 SE 5 7 30.31 1026 10 16 0.00 0.00
7:53 pm 19:53 Clear 60 15.6 46 7.8 60 60 SE 3 6 30.32 1027 10 16 0.00 0.00
8:53 pm 20:53 Clear 59 15 45 7.2 60 60 Calm 30.32 1027 10 16 0.00 0.00
9:53 pm 21:53 Mostly Cloudy 59 15 46 7.8 62 62 ESE 5 7 30.31 1026 10 16 0.00 0.00
10:53 pm 22:53 Partly Cloudy 59 15 46 7.8 62 62 undefined N/A 30.30 1026 10 16 0.00 0.00
11:53 pm 23:53 Partly Cloudy 58 14.4 47 8.3 67 67 SE 7 11 30.29 1026 10 16 0.00 0.00

Powered by AerisWeather